Pittsfield, MA

5:27 AM EST on February 25, 2017 (GMT -0500)
Pittsfield Municipal

Weather History for KPSF - December, 2012

Change the Weather History Date:

Thursday, December 6, 2012

  Actual Average Record
Temperature  
Mean Temperature 27 °F 30 °F  
Max Temperature 34 °F 37 °F 63 °F (2001)
Min Temperature 19 °F 23 °F 3 °F (1935)
Degree Days  
Heating Degree Days 38 35  
Month to date heating degree days 175 203  
Since 1 July heating degree days 1682 1854  
Cooling Degree Days 0 0  
Month to date cooling degree days 0 0  
Year to date cooling degree days 465 290  
Moisture  
Dew Point 16 °F    
Average Humidity 67    
Maximum Humidity 84    
Minimum Humidity 49    
Precipitation  
Precipitation 0.00 in 0.11 in 1.95 in (1953)
Month to date precipitation 0.47 0.62  
Year to date precipitation 32.98 43.00  
Sea Level Pressure  
Sea Level Pressure 30.28 in    
Wind  
Wind Speed 5 mph (WNW)    
Max Wind Speed 16 mph    
Max Gust Speed 22 mph    
Visibility 10 miles    
Events      
T = Trace of Precipitation, MM = Missing Value Source: NWS Daily Summary

Daily Weather History Graph

Daily Weather History Graph

Search for Another Location

Airport or City:

Trip Planner

Search our weather history database for the weather conditions in past years. The results will help you decide how hot, cold, wet, or windy it might be!

Date:

Astronomy

Dec. 06, 2012 Rise Set
Actual Time 7:08 AM EST 4:20 PM EST
Civil Twilight 6:36 AM EST 4:52 PM EST
Nautical Twilight 6:01 AM EST 5:27 PM EST
Astronomical Twilight 5:27 AM EST 6:01 PM EST
Moon No Moon Rise 11:52 AM EST (12/6)
Length of Visible Light 10h 15m
Length of Day
9h 11m
Waning Gibbous, 49% of the Moon is Illuminated
Dec 6
Waning Gibbous
Dec 13
New
Dec 20
First Quarter
Dec 28
Full
Jan 4
Last Quarter

Hourly Weather History & Observations

Time (EST) Temp. Windchill Dew Point Humidity Pressure Visibility Wind Dir Wind Speed Gust Speed Precip Events Conditions
12:54 AM 24.1 °F 11.5 °F 12.9 °F 62% 30.20 in 10.0 mi WNW 15.0 mph 21.9 mph N/A   Clear
1:54 AM 24.1 °F 15.2 °F 14.0 °F 65% 30.22 in 10.0 mi WNW 8.1 mph - N/A   Clear
2:54 AM 23.0 °F 11.1 °F 14.0 °F 68% 30.25 in 10.0 mi West 12.7 mph 18.4 mph N/A   Overcast
3:54 AM 21.9 °F 9.2 °F 14.0 °F 72% 30.27 in 10.0 mi WNW 13.8 mph 19.6 mph N/A   Partly Cloudy
4:54 AM 21.0 °F 10.6 °F 14.0 °F 74% 30.28 in 10.0 mi WNW 9.2 mph 18.4 mph N/A   Clear
5:54 AM 21.0 °F 13.4 °F 14.0 °F 74% 30.31 in 10.0 mi Variable 5.8 mph - N/A   Clear
6:54 AM 19.9 °F 14.9 °F 14.0 °F 78% 30.33 in 10.0 mi NNW 3.5 mph - N/A   Clear
7:54 AM 21.0 °F 11.4 °F 14.0 °F 74% 30.35 in 10.0 mi NW 8.1 mph - N/A   Partly Cloudy
8:54 AM 24.1 °F 14.4 °F 15.1 °F 69% 30.35 in 10.0 mi WNW 9.2 mph - N/A   Clear
9:54 AM 27.0 °F 20.5 °F 15.1 °F 61% 30.33 in 10.0 mi NNW 5.8 mph - N/A   Clear
10:54 AM 28.9 °F 20.4 °F 16.0 °F 58% 30.32 in 10.0 mi NW 9.2 mph - N/A   Clear
11:54 AM 32.0 °F 24.2 °F 16.0 °F 52% 30.30 in 10.0 mi WNW 9.2 mph - N/A   Clear
12:54 PM 30.9 °F 24.3 °F 17.1 °F 57% 30.29 in 10.0 mi West 6.9 mph - N/A   Clear
1:54 PM 33.1 °F 27.7 °F 17.1 °F 52% 30.27 in 10.0 mi West 5.8 mph - N/A   Clear
2:54 PM 32.0 °F 27.5 °F 17.1 °F 54% 30.27 in 10.0 mi SW 4.6 mph - N/A   Clear
3:54 PM 30.9 °F 27.5 °F 17.1 °F 57% 30.27 in 10.0 mi West 3.5 mph - N/A   Clear
4:54 PM 27.0 °F - 18.0 °F 69% 30.28 in 10.0 mi Calm Calm - N/A   Clear
5:54 PM 25.0 °F - 17.1 °F 72% 30.28 in 10.0 mi Calm Calm - N/A   Clear
6:54 PM 24.1 °F - 17.1 °F 75% 30.29 in 10.0 mi Calm Calm - N/A   Clear
7:54 PM 21.9 °F - 18.0 °F 85% 30.29 in 10.0 mi Calm Calm - N/A   Clear
8:54 PM 21.0 °F - 18.0 °F 88% 30.29 in 10.0 mi Calm Calm - N/A   Clear
9:54 PM 21.0 °F - 18.0 °F 88% 30.27 in 10.0 mi Calm Calm - N/A   Clear
10:54 PM 21.0 °F - 18.0 °F 88% 30.27 in 10.0 mi Calm Calm - N/A   Clear
11:54 PM 19.9 °F - 18.0 °F 92% 30.25 in 10.0 mi Calm Calm - N/A   Clear